Flag for Italy Weather past 2 weeks in Palermo, Italy

Now
91 °F

Sunny.


Feels Like: 90 °F
Forecast: 74 / 87 °F
Wind: 13 mph from Northeast

Location: Palermo / Punta Raisi

Current Time: Sep 19, 2014 at 4:47:14 PM

Latest Report: Sep 19, 2014 at 3:50 PM


Visibility: 10 mi

Pressure: 30.01 "Hg

Humidity: 32%

Dew point: 57 °F

Location of PalermoLocation

Historic Weather in Palermo — Graph

°F

Palermo temperature yesterday

Maximum temperature yesterday: 86 °F (at 2:20 PM)
Minimum temperature yesterday: 75 °F (at 4:20 AM)
Average temperature yesterday: 80 °F

Past Weeks' High & Low Weather Summary

 TemperatureHumidityPressure
High93 °F (Sep 19, 10:20 AM)84% (Sep 11, 2:50 PM)30.07 "Hg (Sep 11, 2:50 PM)
Low68 °F (Sep 14, 6:20 AM)24% (Sep 19, 10:20 AM)29.83 "Hg (Sep 10, 7:50 PM)
Average77 °F72%29.95 "Hg
* Reported Sep 4 3:20 PM — Sep 19 3:50 PM, Palermo, Weather by CustomWeather, © 2014

Note: Actual official high and low records may vary slightly from our data, if they occured in-between our weather recording intervals... More about our weather records

Advertising

Palermo weather history for previous 24 hours

 ConditionsComfort  
Time TempWeatherWind HumidityBarometerVisibility
3:50 PM
Sep 19
91 °FSunny.13 mph32%30.01 "Hg10 mi
3:20 PM88 °FSunny.12 mph52%30.04 "Hg10 mi
2:50 PM90 °FPassing clouds.12 mph46%30.04 "HgN/A
2:20 PM90 °FSunny.13 mph41%30.04 "Hg10 mi
1:50 PM90 °FSunny.13 mph41%30.04 "Hg10 mi
1:20 PM88 °FSunny.15 mph46%30.07 "Hg10 mi
12:50 PM90 °FPassing clouds.12 mph49%30.04 "HgN/A
12:20 PM88 °FPassing clouds.9 mph52%30.07 "HgN/A
11:50 AM91 °FPassing clouds.9 mph41%30.07 "HgN/A
11:20 AM91 °FSunny.6 mph41%30.07 "Hg10 mi
10:50 AM91 °FPassing clouds.10 mph32%30.04 "HgN/A
10:20 AM93 °FPassing clouds.9 mph24%30.04 "HgN/A
9:50 AM86 °FPassing clouds.5 mph52%30.04 "HgN/A
9:20 AM86 °FSunny.7 mph43%30.01 "Hg10 mi
8:50 AM82 °FPassing clouds.6 mph70%30.01 "HgN/A
8:20 AM82 °FSunny.8 mph58%29.98 "Hg10 mi
7:50 AM82 °FPassing clouds.6 mph51%29.98 "HgN/A
7:20 AM82 °FPassing clouds.6 mph45%29.95 "HgN/A
6:50 AM79 °FPassing clouds.1 mph65%29.98 "HgN/A
6:20 AM79 °FClear.10 mph65%29.95 "Hg10 mi
5:50 AM79 °FClear.8 mph70%29.95 "Hg10 mi
5:20 AM79 °FClear.9 mph65%29.95 "Hg10 mi
4:50 AM77 °FPassing clouds.7 mph74%29.95 "HgN/A
4:20 AM79 °FClear.1 mph74%29.95 "Hg10 mi
3:50 AM77 °FClear.No wind74%29.95 "Hg10 mi
3:20 AM79 °FClear.8 mph65%29.95 "Hg10 mi
2:50 AM77 °FPassing clouds.3 mph69%29.95 "HgN/A
2:20 AM79 °FClear.7 mph70%29.98 "Hg10 mi
1:50 AM77 °FPassing clouds.3 mph69%29.98 "HgN/A
1:20 AM79 °FPassing clouds.5 mph65%29.98 "HgN/A
12:50 AM77 °FClear.7 mph69%29.98 "Hg10 mi
12:20 AM77 °FClear.1 mph69%29.98 "Hg10 mi
11:50 PM
Sep 18
77 °FPassing clouds.5 mph74%29.98 "HgN/A
11:20 PM77 °FClear.6 mph79%29.98 "Hg10 mi
10:50 PM77 °FClear.3 mph74%29.98 "Hg10 mi
10:20 PM79 °FClear.2 mph74%30.01 "Hg10 mi
9:50 PM81 °FClear.2 mph66%29.98 "Hg10 mi
9:20 PM81 °FClear.2 mph74%29.98 "Hg10 mi
8:50 PM81 °FClear.1 mph70%29.98 "Hg10 mi
8:20 PM81 °FClear.9 mph74%29.98 "Hg10 mi
7:50 PM82 °FPassing clouds.8 mph66%29.98 "HgN/A
7:20 PM82 °FSunny.8 mph66%29.95 "Hg10 mi
6:50 PM84 °FPassing clouds.6 mph58%29.95 "HgN/A
6:20 PM84 °FSunny.8 mph62%29.95 "Hg10 mi
5:50 PM84 °FSunny.12 mph66%29.95 "Hg10 mi
5:20 PM86 °FSunny.10 mph55%29.95 "Hg10 mi
4:50 PM82 °FSunny.12 mph74%29.95 "Hg10 mi
4:20 PM84 °FSunny.13 mph66%29.95 "Hg10 mi
Weather by CustomWeather, © 2014

See weather overviewHow to use our weather pages